Location: Montreal
(45.5087°N, 73.5540°W)
Time: 09:52:34
(UTC-04:00)

X-37B - Pass Details

Date: 28 September 2021
Orbit: 342 x 346 km, 45.0° (Epoch: 22 October)

Event Time Altitude Azimuth Distance (km) Brightness Sun altitude
Exits shadow 04:36:44 25° 92° (E) 748 2.6 -23.5°
Drops below altitude 10° 04:38:07 10° 86° (E) 1,295 4.2 -23.3°
Sets 04:40:08 0° 84° (E) 2,137 5.6 -22.9°
